Le nostre stazioni meteo in Italia

Pubblicità
Il mio iltempo24.it
Capo Bellavista, Italia (16550): Temperatura & dewpoint: 15.09.2018 05:00:00 - 21.09.2018 05:00:00 (CEST)Capo Bellavista, Italia (16550): velocità del vento: 15.09.2018 05:00:00 - 21.09.2018 05:00:00 (CEST)Capo Bellavista, Italia (16550): direzione del vento: 15.09.2018 05:00:00 - 21.09.2018 05:00:00 (CEST)Capo Bellavista, Italia (16550): reduced air pressure: 15.09.2018 05:00:00 - 21.09.2018 05:00:00 (CEST)Capo Bellavista, Italia (16550): visibility: 15.09.2018 05:00:00 - 21.09.2018 05:00:00 (CEST)Capo Bellavista, Italia (16550): ore di luce: 15.09.2018 05:00:00 - 21.09.2018 05:00:00 (CEST)
Data & Tempo tt [°C] td [°C] ff [km/h] ff [kn] dd ppp [hPa] vv [km] sd [min]
21.09.2018 05:00:00 - - - - - - - -
21.09.2018 04:00:00 20,4 18,7 34 18 ENE 1010,9 18 -
21.09.2018 03:00:00 20,8 19,1 41 22 ENE 1010,5 16 -
21.09.2018 02:00:00 20,2 18,4 31 17 NE 1011,2 16 -
21.09.2018 01:00:00 21,0 17,4 31 17 N 1011,6 20 -
21.09.2018 00:00:00 20,8 19,0 31 17 NNE 1012,2 20 -
20.09.2018 23:00:00 19,6 17,8 34 18 NNE 1012,5 18 -
20.09.2018 22:00:00 19,8 18,0 21 11 NO 1012,6 16 -
20.09.2018 21:00:00 19,8 18,0 24 13 N 1012,5 12 -
20.09.2018 20:00:00 21,4 16,3 29 16 NNO 1012,3 25 0
20.09.2018 19:00:00 21,4 16,9 22 12 NNO 1012,5 25 0
20.09.2018 18:00:00 21,6 18,1 16 9 N 1012,5 25 0
20.09.2018 17:00:00 22,0 16,2 22 12 N 1013,6 20 0
20.09.2018 16:00:00 21,0 17,1 22 12 N 1014,4 25 0
20.09.2018 15:00:00 20,2 18,4 22 12 N 1013,5 16 0
20.09.2018 14:00:00 24,0 14,4 44 24 NE 1014,2 20 36
20.09.2018 13:00:00 25,0 15,2 22 12 NNE 1014,3 25 36
20.09.2018 12:00:00 24,0 15,5 15 8 NNE 1015,0 20 30
20.09.2018 11:00:00 23,0 15,4 15 8 NO 1015,1 25 18
20.09.2018 10:00:00 21,0 15,5 13 7 NO 1015,0 25 30
20.09.2018 09:00:00 20,4 15,2 13 7 NO 1015,3 25 0
20.09.2018 08:00:00 21,0 14,4 11 6 NNE 1015,2 25 0
20.09.2018 07:00:00 21,0 14,4 5 3 NO 1015,1 20 -
20.09.2018 06:00:00 20,6 15,7 13 7 NNO 1015,5 20 -
20.09.2018 05:00:00 20,4 14,8 15 8 NO 1015,2 20 -
20.09.2018 04:00:00 20,2 15,6 15 8 NO 1015,6 20 -
20.09.2018 03:00:00 20,4 17,4 16 9 NNO 1015,8 20 -
20.09.2018 02:00:00 20,2 17,5 15 8 NO 1016,6 20 -
20.09.2018 01:00:00 20,2 18,2 15 8 NO 1016,8 20 -
20.09.2018 00:00:00 - - - - - - - -
19.09.2018 23:00:00 20,2 18,4 11 6 ONO 1016,9 20 -
19.09.2018 22:00:00 21,2 18,0 9 5 N 1016,5 20 -
19.09.2018 21:00:00 20,6 18,5 24 13 NNE 1016,1 20 -
19.09.2018 20:00:00 20,0 18,2 21 11 NE 1016,1 20 0
19.09.2018 19:00:00 19,8 18,0 13 7 NO 1016,3 25 0
19.09.2018 18:00:00 20,4 18,6 16 9 NNO 1016,2 25 0
19.09.2018 17:00:00 21,0 19,3 13 7 NO 1015,9 25 0
19.09.2018 16:00:00 21,8 19,8 8 4 O 1015,9 25 0
19.09.2018 15:00:00 22,8 19,6 15 8 ENE 1015,9 25 0
19.09.2018 14:00:00 24,0 20,0 18 10 ENE 1016,1 30 0
19.09.2018 13:00:00 24,8 20,9 16 9 ENE 1016,2 20 60
19.09.2018 12:00:00 23,8 19,9 16 9 ENE 1016,3 20 60
19.09.2018 11:00:00 23,0 19,2 15 8 NNE 1016,5 20 42
19.09.2018 10:00:00 21,4 18,4 15 8 N 1016,6 20 18
19.09.2018 09:00:00 20,4 18,1 8 4 N 1016,1 20 0
19.09.2018 08:00:00 - - - - - - - -
19.09.2018 07:00:00 - - - - - - - -
19.09.2018 06:00:00 - - - - - - - -
19.09.2018 05:00:00 - - - - - - - -
19.09.2018 04:00:00 - - - - - - - -
19.09.2018 03:00:00 - - - - - - - -
19.09.2018 02:00:00 - - - - - - - -
19.09.2018 01:00:00 - - - - - - - -
19.09.2018 00:00:00 - - - - - - - -
18.09.2018 23:00:00 - - - - - - - -
18.09.2018 22:00:00 22,4 18,9 0 0 N 1017,5 25 -
18.09.2018 21:00:00 23,0 19,2 0 0 N 1017,1 25 -
18.09.2018 20:00:00 23,0 18,9 5 3 S 1016,8 25 0
18.09.2018 19:00:00 23,2 18,5 9 5 S 1016,7 25 12
18.09.2018 18:00:00 23,0 16,0 15 8 SSO 1017,3 25 0
18.09.2018 17:00:00 24,6 22,4 13 7 SSO 1017,5 20 0
18.09.2018 16:00:00 23,8 21,6 8 4 SSO 1017,9 25 0
18.09.2018 15:00:00 23,8 21,0 0 0 N 1018,1 25 0
18.09.2018 14:00:00 23,0 20,7 8 4 SSO 1018,4 20 0
18.09.2018 13:00:00 23,0 21,0 0 0 N 1018,4 20 0
18.09.2018 12:00:00 21,4 20,5 4 2 ONO 1018,8 20 0
18.09.2018 11:00:00 22,2 20,5 0 0 N 1018,8 16 0
18.09.2018 10:00:00 22,0 20,0 5 3 OSO 1018,6 16 0
18.09.2018 09:00:00 22,2 19,9 9 5 O 1018,4 20 0
18.09.2018 08:00:00 22,2 18,6 0 0 N 1017,9 20 0
18.09.2018 07:00:00 21,8 19,7 4 2 ONO 1017,9 20 -
18.09.2018 06:00:00 21,8 20,1 4 2 ONO 1017,9 16 -
18.09.2018 05:00:00 21,4 20,2 8 4 ONO 1018,0 20 -
18.09.2018 04:00:00 22,0 20,3 0 0 N 1018,3 20 -
18.09.2018 03:00:00 22,0 21,2 0 0 N 1018,5 20 -
18.09.2018 02:00:00 22,8 21,1 0 0 N 1018,5 20 -
18.09.2018 01:00:00 22,8 21,1 0 0 N 1018,5 16 -
18.09.2018 00:00:00 22,8 21,1 0 0 N 1018,5 16 -
17.09.2018 23:00:00 23,8 22,1 4 2 SSO 1018,4 20 -
17.09.2018 22:00:00 23,8 21,7 8 4 S 1018,6 20 -
17.09.2018 21:00:00 24,0 21,9 13 7 S 1018,3 20 -
17.09.2018 20:00:00 23,8 23,5 13 7 SSO 1018,0 20 0
17.09.2018 19:00:00 25,0 21,3 16 9 SSO 1017,5 20 0
17.09.2018 18:00:00 26,2 22,1 9 5 S 1018,0 20 30
17.09.2018 17:00:00 27,0 22,6 13 7 S 1018,3 16 60
17.09.2018 16:00:00 26,4 22,2 11 6 S 1019,0 20 48
17.09.2018 15:00:00 25,4 25,4 8 4 S 1019,9 16 30
17.09.2018 14:00:00 28,4 21,9 8 4 ESE 1020,7 20 60
17.09.2018 13:00:00 29,0 28,6 8 4 ESE 1020,6 20 12
17.09.2018 12:00:00 28,4 23,5 0 0 N 1020,3 20 36
17.09.2018 11:00:00 26,2 23,5 4 2 S 1020,3 20 54
17.09.2018 10:00:00 25,4 22,7 0 0 N 1020,3 20 60
17.09.2018 09:00:00 23,0 20,9 0 0 N 1020,3 25 18
17.09.2018 08:00:00 22,2 19,9 0 0 N 1020,2 25 0
17.09.2018 07:00:00 22,8 20,7 0 0 N 1019,7 20 -
17.09.2018 06:00:00 23,0 20,5 5 3 NO 1019,4 20 -
17.09.2018 05:00:00 23,0 22,8 0 0 N 1019,7 20 -
17.09.2018 04:00:00 23,2 21,5 2 1 SO 1020,1 20 -
17.09.2018 03:00:00 23,2 22,5 0 0 N 1020,2 20 -
17.09.2018 02:00:00 23,6 22,9 0 0 N 1020,3 20 -
17.09.2018 01:00:00 23,6 21,1 2 1 O 1020,2 20 -
17.09.2018 00:00:00 23,8 22,1 2 1 NO 1020,7 20 -
16.09.2018 23:00:00 24,2 21,9 4 2 NO 1020,6 20 -
16.09.2018 22:00:00 24,4 23,2 5 3 SO 1020,8 20 -
16.09.2018 21:00:00 25,2 25,0 9 5 SO 1020,5 25 -
16.09.2018 20:00:00 25,8 25,5 11 6 SSO 1020,4 25 0
16.09.2018 19:00:00 26,2 24,4 11 6 SSO 1020,1 25 24
16.09.2018 18:00:00 28,2 23,3 2 1 S 1020,0 25 54
16.09.2018 17:00:00 28,6 21,1 2 1 NNO 1020,0 25 42
16.09.2018 16:00:00 27,8 21,1 4 2 S 1021,0 25 24
16.09.2018 15:00:00 26,8 22,2 2 1 E 1021,0 20 0
16.09.2018 14:00:00 26,2 23,3 2 1 ESE 1021,2 20 0
16.09.2018 13:00:00 25,4 23,1 2 1 E 1021,2 15 0
16.09.2018 12:00:00 25,8 23,7 2 1 ENE 1020,7 15 0
16.09.2018 11:00:00 25,2 22,9 2 1 SE 1020,9 30 0
16.09.2018 10:00:00 25,0 22,9 2 1 SE 1021,4 25 18
16.09.2018 09:00:00 22,4 19,0 5 3 ONO 1021,5 30 0
16.09.2018 08:00:00 22,0 18,2 9 5 ONO 1020,6 30 0
16.09.2018 07:00:00 22,6 18,4 4 2 ONO 1020,4 20 -
16.09.2018 06:00:00 22,8 19,8 5 3 O 1020,4 20 -
16.09.2018 05:00:00 22,8 18,6 4 2 O 1020,4 20 -
16.09.2018 04:00:00 23,0 19,0 4 2 O 1020,3 20 -
16.09.2018 03:00:00 23,2 19,4 4 2 ONO 1020,2 20 -
16.09.2018 02:00:00 23,0 20,0 2 1 O 1020,2 20 -
16.09.2018 01:00:00 23,2 20,5 4 2 ONO 1020,2 20 -
16.09.2018 00:00:00 23,4 21,1 4 2 O 1020,1 20 -
15.09.2018 23:00:00 23,6 21,7 4 2 ONO 1020,1 20 -
15.09.2018 22:00:00 23,8 23,0 0 0 N 1020,0 20 -
15.09.2018 21:00:00 25,0 24,1 0 0 N 1019,8 20 -
15.09.2018 20:00:00 25,0 23,3 0 0 N 1019,4 25 0
15.09.2018 19:00:00 26,4 23,1 0 0 N 1019,3 30 60
15.09.2018 18:00:00 27,8 22,3 4 2 SSE 1019,2 30 60
15.09.2018 17:00:00 28,0 22,5 5 3 SE 1019,3 30 60
15.09.2018 16:00:00 28,4 22,9 9 5 SE 1019,2 30 60
15.09.2018 15:00:00 28,2 22,7 11 6 SE 1019,4 30 60
15.09.2018 14:00:00 28,0 22,3 13 7 E 1019,6 30 60
15.09.2018 13:00:00 28,2 22,7 15 8 E 1019,5 30 60
15.09.2018 12:00:00 28,4 22,4 13 7 E 1019,3 30 60
15.09.2018 11:00:00 28,2 23,1 11 6 E 1018,8 30 60
15.09.2018 10:00:00 28,0 23,4 9 5 ENE 1018,5 30 60
15.09.2018 09:00:00 25,0 20,7 8 4 NNE 1018,7 25 6
15.09.2018 08:00:00 22,4 15,7 9 5 NNO 1018,3 25 0
15.09.2018 07:00:00 22,4 16,0 9 5 NO 1017,9 20 -
15.09.2018 06:00:00 22,4 16,0 15 8 NO 1017,3 25 -
15.09.2018 05:00:00 22,4 16,2 18 10 NO 1017,3 25 -

tt = Temperatura
td = dewpoint
ff = velocità del vento
dd = direzione del vento
ppp = reduced air pressure
vv = visibility
sd = ore di luce

Stazioni seguenti

WeatherPro
AMSI
MeteoEarth